Home   Weather   San Francisco   Past weeks
Flag for USA

Past Weather in San Francisco, California, USA — Yesterday and Last 2 Weeks

Now
63 °F

Partly cloudy.


Feels Like: 63 °F
Forecast: 57 / 52 °F
Wind: 5 mph from East

Location: San Francisco International Airport

Current Time: Jan 19, 2019 at 9:25:56 pm

Latest Report: Jan 19, 2019 at 7:56 pm


Visibility: 10 mi

Pressure: 30.19 "Hg

Humidity: 58%

Dew Point: 48 °F

Location of San FranciscoLocation

Past Weather in San Francisco — Graph

°F

San Francisco Temperature Yesterday

Maximum temperature yesterday: 64 °F (at 4:56 pm)
Minimum temperature yesterday: 56 °F (at 4:56 am)
Average temperature yesterday: 60 °F

High & Low Weather Summary for the Past Weeks

 TemperatureHumidityPressure
High66 °F (Jan 10, 4:56 pm)97% (Jan 10, 11:56 am)30.38 "Hg (Jan 10, 11:56 am)
Low47 °F (Jan 6, 2:56 am)46% (Jan 18, 10:56 pm)29.62 "Hg (Jan 5, 12:56 pm)
Average56 °F74%29.98 "Hg
* Reported Jan 4 7:56 pm — Jan 19 7:56 pm, San Francisco. Weather by CustomWeather, © 2019

Note: Actual official high and low records may vary slightly from our data, if they occured in-between our weather recording intervals... More about our weather records

Advertising

San Francisco Weather History for the Previous 24 Hours

Scroll right to see more
 ConditionsComfort  
Time TempWeatherWind HumidityBarometerVisibility
7:56 pm
Sat, Jan 19
63 °FPartly cloudy.5 mph58%30.19 "Hg10 mi
6:56 pm62 °FPartly cloudy.3 mph62%30.21 "Hg10 mi
5:56 pm63 °FPassing clouds.5 mph58%30.22 "Hg10 mi
4:56 pm64 °FPartly sunny.8 mph61%30.23 "Hg10 mi
2:56 pm65 °FPartly sunny.3 mph59%30.26 "Hg10 mi
1:56 pm62 °FPartly sunny.3 mph65%30.27 "Hg10 mi
12:56 pm61 °FBroken clouds.6 mph70%30.30 "Hg10 mi
11:56 am60 °FPartly sunny.6 mph72%30.33 "Hg10 mi
10:56 am59 °FBroken clouds.5 mph75%30.36 "Hg10 mi
9:56 am58 °FBroken clouds.3 mph75%30.37 "Hg10 mi
8:56 am58 °FPartly sunny.3 mph75%30.37 "Hg10 mi
7:56 am57 °FPartly sunny.5 mph74%30.35 "Hg10 mi
6:56 am58 °FPassing clouds.No wind72%30.34 "Hg10 mi
5:56 am59 °FOvercast.3 mph64%30.34 "Hg10 mi
4:56 am60 °FOvercast.No wind60%30.34 "Hg10 mi
3:56 am59 °FOvercast.No wind69%30.34 "Hg10 mi
2:56 am60 °FOvercast.No wind67%30.35 "Hg10 mi
2:14 am61 °FOvercast.No wind65%30.36 "Hg10 mi
1:56 am61 °FMostly cloudy.No wind65%30.35 "Hg10 mi
12:56 am63 °FMostly cloudy.5 mph50%30.37 "Hg10 mi
11:56 pm
Fri, Jan 18
63 °FOvercast.6 mph50%30.38 "Hg8 mi
10:56 pm62 °FOvercast.6 mph46%30.37 "Hg7 mi
9:56 pm63 °FMostly cloudy.5 mph56%30.35 "Hg10 mi
Weather by CustomWeather, © 2019

See weather overview